Gypsum, OH

3:35 AM EST on December 11, 2016 (GMT -0500)
Keller

Weather History for KPCW - March, 2014

Change the Weather History Date:

Friday, March 14, 2014

  Actual Average (KTTF) Record (KTTF)
Temperature  
Mean Temperature 41 °F -  
Max Temperature 54 °F 42 °F 77 °F (2012)
Min Temperature 28 °F 27 °F 5 °F (1993)
Degree Days  
Heating Degree Days 24    
Moisture  
Dew Point 29 °F    
Average Humidity 60    
Maximum Humidity 73    
Minimum Humidity 50    
Precipitation  
Precipitation 0.00 in - - ()
Sea Level Pressure  
Sea Level Pressure 29.77 in    
Wind  
Wind Speed 13 mph (SSW)    
Max Wind Speed 23 mph    
Max Gust Speed -    
Visibility 10 miles    
Events      
Averages and records for this station are not official NWS values.
T = Trace of Precipitation, MM = Missing Value Source: NWS Daily Summary

Daily Weather History Graph

Daily Weather History Graph

Search for Another Location

Airport or City:

Trip Planner

Search our weather history database for the weather conditions in past years. The results will help you decide how hot, cold, wet, or windy it might be!

Date:

Astronomy

Mar. 14, 2014 Rise Set
Actual Time 7:44 AM EDT 7:36 PM EDT
Civil Twilight 7:17 AM EDT 8:04 PM EDT
Nautical Twilight 6:45 AM EDT 8:36 PM EDT
Astronomical Twilight 6:12 AM EDT 9:09 PM EDT
Moon 5:57 PM EDT (3/14) 6:25 AM EDT (3/14)
Length of Visible Light 12h 47m
Length of Day
11h 52m
Waxing Gibbous, 96% of the Moon is Illuminated
Mar 14
Waxing Gibbous
Mar 16
Full
Mar 23
Last Quarter
Mar 30
New
Apr 7
First Quarter

Hourly Weather History & Observations

Time (EDT) Temp. Windchill Dew Point Humidity Pressure Visibility Wind Dir Wind Speed Gust Speed Precip Events Conditions
12:14 AM 28.4 °F 19.7 °F 17.6 °F 64% 29.99 in 10.0 mi South 9.2 mph - N/A   Clear
12:33 AM 28.4 °F 19.7 °F 17.6 °F 64% 29.99 in 10.0 mi South 9.2 mph - N/A   Clear
12:54 AM 29.1 °F 20.6 °F 17.1 °F 61% 29.97 in 10.0 mi South 9.2 mph - N/A   Clear
1:13 AM 30.2 °F 21.9 °F 17.6 °F 60% 29.96 in 10.0 mi South 9.2 mph - N/A   Clear
1:33 AM 30.2 °F 22.6 °F 17.6 °F 60% 29.96 in 10.0 mi South 8.1 mph - N/A   Clear
1:54 AM 30.2 °F 21.9 °F 17.6 °F 60% 29.95 in 10.0 mi South 9.2 mph - N/A   Clear
2:13 AM 30.2 °F 20.8 °F 17.6 °F 60% 29.94 in 10.0 mi South 11.5 mph - N/A   Clear
2:34 AM 30.2 °F 20.8 °F 19.4 °F 64% 29.94 in 10.0 mi South 11.5 mph - N/A   Clear
2:54 AM 31.1 °F 21.9 °F 19.0 °F 61% 29.94 in 10.0 mi South 11.5 mph - N/A   Clear
3:13 AM 30.2 °F 19.8 °F 19.4 °F 64% 29.93 in 10.0 mi South 13.8 mph - N/A   Clear
3:34 AM 30.2 °F 19.8 °F 19.4 °F 64% 29.91 in 10.0 mi South 13.8 mph - N/A   Clear
3:53 AM 32.0 °F 22.1 °F 20.1 °F 62% 29.90 in 10.0 mi South 13.8 mph - N/A   Clear
4:14 AM 32.0 °F 21.6 °F 19.4 °F 60% 29.91 in 10.0 mi South 15.0 mph - N/A   Clear
4:34 AM 32.0 °F 22.5 °F 19.4 °F 60% 29.90 in 10.0 mi South 12.7 mph - N/A   Clear
4:53 AM 32.0 °F 21.6 °F 21.0 °F 64% 29.88 in 10.0 mi South 15.0 mph - N/A   Clear
5:14 AM 33.8 °F 24.3 °F 21.2 °F 60% 29.88 in 10.0 mi South 13.8 mph - N/A   Clear
5:34 AM 33.8 °F 24.3 °F 21.2 °F 60% 29.88 in 10.0 mi South 13.8 mph - N/A   Clear
5:53 AM 32.9 °F 23.7 °F 23.0 °F 67% 29.88 in 10.0 mi South 12.7 mph - N/A   Clear
6:14 AM 33.8 °F 25.3 °F 23.0 °F 65% 29.86 in 10.0 mi South 11.5 mph - N/A   Clear
6:33 AM 33.8 °F 24.8 °F 23.0 °F 65% 29.85 in 10.0 mi South 12.7 mph - N/A   Clear
6:54 AM 34.0 °F 25.0 °F 23.0 °F 64% 29.86 in 10.0 mi South 12.7 mph - N/A   Clear
7:14 AM 33.8 °F 25.3 °F 23.0 °F 65% 29.85 in 10.0 mi South 11.5 mph - N/A   Clear
7:33 AM 33.8 °F 24.3 °F 23.0 °F 65% 29.83 in 10.0 mi South 13.8 mph - N/A   Clear
7:54 AM 34.9 °F 26.2 °F 24.1 °F 65% 29.83 in 10.0 mi SSW 12.7 mph - N/A   Clear
8:13 AM 35.6 °F 27.1 °F 24.8 °F 65% 29.84 in 10.0 mi SSW 12.7 mph - N/A   Clear
8:34 AM 35.6 °F 27.5 °F 24.8 °F 65% 29.84 in 10.0 mi South 11.5 mph - N/A   Clear
8:54 AM 36.9 °F 27.8 °F 25.2 °F 63% 29.82 in 10.0 mi South 15.0 mph - N/A   Clear
9:14 AM 37.4 °F 27.5 °F 24.8 °F 60% 29.81 in 10.0 mi South 18.4 mph - N/A   Clear
9:34 AM 39.2 °F 30.2 °F 26.6 °F 61% 29.81 in 10.0 mi South 17.3 mph - N/A   Clear
9:53 AM 38.8 °F 29.7 °F 26.1 °F 60% 29.80 in 10.0 mi South 17.3 mph - N/A   Clear
10:14 AM 41.0 °F 31.9 °F 26.6 °F 57% 29.79 in 10.0 mi South 19.6 mph - N/A   Clear
10:34 AM 41.0 °F 32.5 °F 28.4 °F 61% 29.79 in 10.0 mi South 17.3 mph - N/A   Clear
10:53 AM 41.9 °F 33.4 °F 28.0 °F 58% 29.78 in 10.0 mi South 18.4 mph - N/A   Clear
11:14 AM 42.8 °F 35.1 °F 28.4 °F 57% 29.77 in 10.0 mi South 16.1 mph - N/A   Clear
11:33 AM 42.8 °F 35.4 °F 28.4 °F 57% 29.77 in 10.0 mi South 15.0 mph - N/A   Clear
11:53 AM 43.9 °F 36.8 °F 30.0 °F 58% 29.76 in 10.0 mi South 15.0 mph - N/A   Clear
12:14 PM 44.6 °F 37.4 °F 30.2 °F 57% 29.75 in 10.0 mi South 16.1 mph - N/A   Clear
12:33 PM 46.4 °F 40.7 °F 30.2 °F 53% 29.75 in 10.0 mi South 12.7 mph - N/A   Clear
12:53 PM 46.9 °F - 31.1 °F 54% 29.74 in 10.0 mi South 13.8 mph - N/A   Clear
1:14 PM 48.2 °F - 30.2 °F 50% 29.71 in 10.0 mi South 16.1 mph - N/A   Clear
1:33 PM 48.2 °F - 32.0 °F 54% 29.70 in 10.0 mi South 12.7 mph - N/A   Clear
1:54 PM 48.9 °F - 32.0 °F 52% 29.69 in 10.0 mi South 13.8 mph - N/A   Clear
2:14 PM 50.0 °F - 33.8 °F 54% 29.68 in 10.0 mi South 15.0 mph - N/A   Clear
2:33 PM 50.0 °F - 33.8 °F 54% 29.66 in 10.0 mi South 13.8 mph - N/A   Clear
2:54 PM 50.9 °F - 34.0 °F 52% 29.66 in 10.0 mi South 18.4 mph - N/A   Clear
3:14 PM 51.8 °F - 35.6 °F 54% 29.64 in 10.0 mi South 17.3 mph - N/A   Clear
3:33 PM 51.8 °F - 35.6 °F 54% 29.63 in 10.0 mi South 13.8 mph - N/A   Clear
3:54 PM 52.9 °F - 36.0 °F 53% 29.62 in 10.0 mi SSW 16.1 mph - N/A   Clear
4:14 PM 53.6 °F - 35.6 °F 51% 29.61 in 10.0 mi South 17.3 mph - N/A   Clear
4:33 PM 53.6 °F - 35.6 °F 51% 29.62 in 10.0 mi SSW 17.3 mph - N/A   Clear
4:54 PM 54.0 °F - 36.0 °F 51% 29.61 in 10.0 mi South 18.4 mph - N/A   Clear
5:14 PM 53.6 °F - 35.6 °F 51% 29.61 in 10.0 mi South 20.7 mph - N/A   Partly Cloudy
5:33 PM 53.6 °F - 37.4 °F 54% 29.61 in 10.0 mi SSW 17.3 mph - N/A   Mostly Cloudy
5:54 PM 52.9 °F - 36.9 °F 55% 29.61 in 10.0 mi SSW 16.1 mph - N/A   Overcast
6:13 PM 51.8 °F - 37.4 °F 58% 29.62 in 10.0 mi SW 16.1 mph - N/A   Overcast
6:33 PM 51.8 °F - 37.4 °F 58% 29.62 in 10.0 mi SSW 11.5 mph - N/A   Overcast
6:54 PM 51.8 °F - 37.4 °F 58% 29.62 in 10.0 mi SSW 15.0 mph - N/A   Overcast
7:13 PM 51.8 °F - 37.4 °F 58% 29.63 in 10.0 mi SSW 16.1 mph - N/A   Overcast
7:33 PM 51.8 °F - 37.4 °F 58% 29.64 in 10.0 mi SSW 17.3 mph - N/A   Overcast
7:54 PM 50.0 °F - 37.4 °F 62% 29.64 in 10.0 mi SSW 18.4 mph - N/A   Mostly Cloudy
8:13 PM 50.0 °F - 37.4 °F 62% 29.64 in 10.0 mi SSW 19.6 mph - N/A   Overcast
8:34 PM 48.2 °F - 37.4 °F 66% 29.64 in 10.0 mi SW 23.0 mph - N/A   Overcast
8:54 PM 50.0 °F - 37.4 °F 62% 29.65 in 10.0 mi SW 21.9 mph - N/A   Mostly Cloudy
9:13 PM 48.2 °F - 37.4 °F 66% 29.66 in 10.0 mi SW 17.3 mph - N/A   Mostly Cloudy
9:34 PM 48.2 °F - 37.4 °F 66% 29.67 in 10.0 mi SW 18.4 mph - N/A   Scattered Clouds
9:54 PM 47.8 °F - 36.9 °F 66% 29.68 in 10.0 mi WSW 17.3 mph - N/A   Partly Cloudy
10:14 PM 46.4 °F 39.2 °F 35.6 °F 66% 29.68 in 10.0 mi WSW 18.4 mph - N/A   Clear
10:34 PM 46.4 °F 39.2 °F 35.6 °F 66% 29.69 in 10.0 mi SW 18.4 mph - N/A   Clear
10:53 PM 46.4 °F 39.5 °F 35.6 °F 66% 29.69 in 10.0 mi WSW 17.3 mph - N/A   Clear
11:14 PM 44.6 °F 37.8 °F 35.6 °F 71% 29.70 in 10.0 mi WSW 15.0 mph - N/A   Clear
11:34 PM 44.6 °F 37.8 °F 35.6 °F 71% 29.71 in 10.0 mi WSW 15.0 mph - N/A   Clear
11:53 PM 43.0 °F 35.7 °F 34.9 °F 73% 29.72 in 10.0 mi West 15.0 mph - N/A   Clear